Location: Unspecified
(0.0000°N, 0.0000°E)
Time: 21:17:27

SRMSAT - Pass Details

Date: 14 December 2017
Orbit: 849 x 866 km, 20.0° (Epoch: 24 March)

Event Time Altitude Azimuth Distance (km) Brightness Sun altitude
Rises 18:19:52 0° 246° (WSW) 3,403 ? -5.7°
Reaches altitude 10° 18:23:48 10° 221° (SW) 2,465 ? -6.6°
Maximum altitude 18:26:44 14° 191° (SSW) 2,198 ? -7.3°
Drops below altitude 10° 18:29:41 10° 161° (SSE) 2,463 ? -8.0°
Sets 18:33:38 0° 136° (SE) 3,398 ? -8.9°
